PDT,Max TemperatureF,Mean TemperatureF,Min TemperatureF,Max Dew PointF,MeanDew PointF,Min DewpointF,Max Humidity, Mean Humidity, Min Humidity, Max Sea Level PressureIn, Mean Sea Level PressureIn, Min Sea Level PressureIn, Max VisibilityMiles, Mean VisibilityMiles, Min VisibilityMiles, Max Wind SpeedMPH, Mean Wind SpeedMPH, Max Gust SpeedMPH,PrecipitationIn, CloudCover, Events, WindDirDegrees
2012-9-1,61,56,50,54,51,48,100,86,72,30.09,30.05,30.00,10,9,5,15,5,20,0.00,4,,173
2012-9-2,60,54,47,54,51,46,100,88,75,30.09,30.05,29.99,10,6,0,17,5,22,0.01,3,Fog,142
2012-9-3,57,51,44,54,49,43,100,93,86,30.04,30.01,29.98,10,2,0,13,5,16,T,7,Fog,171
2012-9-4,57,54,50,54,52,50,100,92,83,30.03,30.01,29.98,10,2,0,14,5,16,0.01,8,Fog-Rain,167
2012-9-5,55,53,50,52,51,48,100,93,86,30.01,29.99,29.96,10,2,0,14,4,17,T,8,Fog,178
2012-9-6,55,53,50,52,50,49,100,95,89,30.05,30.01,29.98,10,5,0,12,3,15,0.01,8,Fog,170
2012-9-7,54,52,50,50,49,48,100,92,83,30.13,30.10,30.05,10,8,2,8,2,10,0.01,8,,192
2012-9-8,60,54,47,49,48,45,93,79,64,30.14,30.11,30.07,10,9,4,8,2,13,0.01,6,,279
2012-9-9,61,53,44,54,50,44,96,84,72,30.10,30.08,30.06,10,9,4,10,4,13,0.00,4,,342
2012-9-10,64,55,46,55,50,46,100,84,67,30.08,30.03,29.95,10,7,1,25,11,36,0.00,1,Rain,343
2012-9-11,61,57,52,50,49,47,83,74,64,29.96,29.94,29.90,10,7,2,18,12,28,0.00,0,,339
2012-9-12,55,53,50,53,50,45,100,95,89,30.10,30.05,29.95,10,3,0,12,3,15,0.01,3,Fog,173
2012-9-13,56,52,47,52,50,47,100,92,83,30.13,30.10,30.07,10,2,0,10,3,15,0.00,8,Fog,184
2012-9-14,57,53,48,52,50,48,100,93,86,30.16,30.11,30.08,10,5,0,8,3,13,0.01,8,Fog-Rain,211
2012-9-15,55,52,48,52,50,46,100,93,86,30.16,30.12,30.08,10,5,0,9,5,12,0.01,8,Fog,115
2012-9-16,56,53,50,53,51,48,100,92,83,30.06,30.03,30.01,7,2,0,13,5,17,0.01,8,Fog,167
2012-9-17,56,53,50,51,50,50,100,92,83,30.07,30.04,30.01,10,4,0,15,9,17,0.00,8,Fog,163
2012-9-18,62,57,51,51,49,46,100,86,72,30.16,30.13,30.07,10,10,6,14,8,17,0.00,6,,162
2012-9-19,58,55,52,52,50,46,93,83,72,30.17,30.15,30.13,10,10,10,8,2,10,0.00,8,,317
2012-9-20,61,57,53,52,51,49,93,87,80,30.17,30.15,30.13,10,8,4,9,3,12,0.00,8,,247
2012-9-21,61,52,42,52,47,43,100,86,72,30.15,30.13,30.07,10,5,0,12,4,17,0.00,1,Fog-Rain,313
2012-9-22,61,52,42,53,48,39,100,86,72,30.09,30.05,29.99,10,6,0,18,4,26,0.00,1,Fog-Rain,329
2012-9-23,63,56,49,54,51,48,100,84,67,30.06,30.04,30.01,10,7,1,15,5,23,0.00,0,,89
2012-9-24,64,55,45,54,49,45,100,86,72,30.07,30.03,29.97,10,4,0,18,6,26,0.00,2,Fog,344
2012-9-25,58,52,46,54,50,45,100,90,80,30.01,29.98,29.93,10,3,0,13,3,16,0.00,6,Fog,160
2012-9-26,57,54,50,52,50,49,100,89,77,29.97,29.93,29.89,10,5,0,10,3,13,0.00,7,Fog,150
2012-9-27,55,52,49,52,50,48,100,93,86,29.94,29.93,29.91,10,2,0,12,5,14,0.00,8,Fog,219
2012-9-28,69,58,47,54,51,46,100,88,75,30.01,29.96,29.91,10,3,0,15,3,18,0.00,3,Fog,274
2012-9-29,59,54,49,54,51,49,100,90,80,30.13,30.10,30.01,10,3,0,9,2,12,0.00,7,Fog,207
2012-9-30,62,55,48,54,51,48,100,86,72,30.14,30.09,30.02,7,3,0,14,4,18,0.00,3,Fog,349